Home   Weather   Columbia   Past weeks
Flag for USA

Past Weather in Columbia, South Carolina, USA — Yesterday and Last 2 Weeks

Now
68 °F

Light rain. Cloudy.


Feels Like: 68 °F
Forecast: 60 / 49 °F
Wind: 10 mph from Southeast

Location: Columbia Owens Downtown Airport

Current Time: Apr 19, 2019 at 8:51:29 pm

Latest Report: Apr 19, 2019 at 7:53 pm


Visibility: 7 mi

Pressure: 29.50 "Hg

Humidity: 84%

Dew Point: 63 °F

Location of ColumbiaLocation

Past Weather in Columbia — Graph

°F

Columbia Temperature Yesterday

Maximum temperature yesterday: 82 °F (at 2:53 pm)
Minimum temperature yesterday: 57 °F (at 6:53 am)
Average temperature yesterday: 71 °F

High & Low Weather Summary for the Past Weeks

 TemperatureHumidityPressure
High86 °F (Apr 8, 2:53 pm)97% (Apr 8, 3:20 am)30.30 "Hg (Apr 8, 3:20 am)
Low45 °F (Apr 16, 5:53 am)25% (Apr 16, 3:53 pm)29.51 "Hg (Apr 19, 4:53 pm)
Average68 °F75%30.00 "Hg
* Reported Apr 4 6:53 pm — Apr 19 6:53 pm, Columbia. Weather by CustomWeather, © 2019

Note: Actual official high and low records may vary slightly from our data, if they occured in-between our weather recording intervals... More about our weather records

Advertising

Columbia Weather History for the Previous 24 Hours

Scroll right to see more
 ConditionsComfort  
Time TempWeatherWind HumidityBarometerVisibility
6:53 pm
Fri, Apr 19
69 °FPartly sunny.13 mph81%29.51 "Hg10 mi
5:53 pm69 °FOvercast.13 mph81%29.51 "Hg10 mi
4:53 pm68 °FOvercast.16 mph87%29.51 "Hg10 mi
4:09 pm68 °FMostly cloudy.15 mph84%29.52 "Hg10 mi
2:53 pm71 °FLight rain. Mostly cloudy.14 mph84%29.56 "Hg6 mi
2:29 pm72 °FThunderstorms. More clouds than sun.16 mph78%29.59 "Hg2 mi
2:11 pm73 °FThunderstorms. Mostly cloudy.20 mph81%29.59 "Hg1 mi
2:00 pm73 °FStrong thunderstorms. Cloudy.22 mph79%29.58 "Hg1 mi
1:32 pm76 °FThundershowers. Cloudy.12 mph74%29.57 "Hg9 mi
12:53 pm76 °FBroken clouds.13 mph77%29.59 "Hg10 mi
12:34 pm75 °FThundershowers. Partly sunny.12 mph79%29.62 "Hg10 mi
11:53 am78 °FCloudy.14 mph66%29.63 "Hg10 mi
10:53 am78 °FCloudy.15 mph66%29.65 "Hg10 mi
9:53 am75 °FBroken clouds.17 mph71%29.67 "Hg10 mi
8:53 am75 °FPartly sunny.12 mph71%29.70 "Hg10 mi
7:53 am75 °FBroken clouds.9 mph74%29.70 "Hg10 mi
6:53 am73 °FOvercast.6 mph81%29.70 "Hg10 mi
6:17 am71 °FPartly cloudy.7 mph87%29.72 "Hg9 mi
5:53 am71 °FMostly cloudy.8 mph87%29.71 "Hg9 mi
5:18 am72 °FPassing clouds.9 mph84%29.72 "Hg10 mi
4:53 am72 °FPassing clouds.9 mph84%29.72 "Hg10 mi
3:53 am72 °FOvercast.12 mph84%29.76 "Hg10 mi
2:53 am72 °FMostly cloudy.10 mph81%29.80 "Hg10 mi
1:53 am71 °FOvercast.8 mph81%29.84 "Hg10 mi
12:53 am70 °FOvercast.10 mph81%29.87 "Hg10 mi
12:38 am70 °FPassing clouds.9 mph79%29.88 "Hg10 mi
11:53 pm
Thu, Apr 18
69 °FClear.6 mph81%29.89 "Hg10 mi
10:53 pm70 °FClear.7 mph76%29.90 "Hg10 mi
9:53 pm71 °FClear.5 mph73%29.90 "Hg10 mi
8:53 pm73 °FClear.5 mph66%29.90 "Hg10 mi
Weather by CustomWeather, © 2019

See weather overview